When you browse on this site, cookies collect data to enhance your experience and personalize the content and advertising you see.
Visit our Privacy Policy to learn more. By continuing to use the site, you agree to this use of cookies and data.
  • In Czech Republic
  • List of Countries
  • For 7 days
  • Water Temperature
  • Weather Map
  • Weather Widgets
  • user-avatar
    Login

    Hourly Weather Mendoza

    Today, 13 December, Friday

    Time Temperature Precipitation Wind Pressure Humidity
    00:00 +20°C° 0 mm 1 mps 696 mmHg 26%
    01:00 +19°C° 0 mm 1 mps 696 mmHg 28%
    02:00 +19°C° 0 mm 1 mps 695 mmHg 29%
    03:00 +19°C° 0 mm 1 mps 695 mmHg 29%
    04:00 +18°C° 0 mm 1 mps 694 mmHg 29%
    05:00 +20°C° 0 mm 1 mps 695 mmHg 26%
    06:00 +22°C° 0 mm 1 mps 695 mmHg 23%
    07:00 +24°C° 0 mm 1 mps 696 mmHg 20%
    08:00 +25°C° 0 mm 2 mps 696 mmHg 19%
    09:00 +27°C° 0 mm 2 mps 696 mmHg 17%
    10:00 +28°C° 0 mm 2 mps 696 mmHg 16%
    11:00 +30°C° 0 mm 2 mps 696 mmHg 15%
    12:00 +31°C° 0 mm 2 mps 695 mmHg 14%
    13:00 +32°C° 0 mm 2 mps 695 mmHg 13%
    14:00 +32°C° 0 mm 2 mps 695 mmHg 13%
    15:00 +34°C° 0 mm 2 mps 694 mmHg 12%
    16:00 +34°C° 0 mm 2 mps 694 mmHg 12%
    17:00 +32°C° 0 mm 2 mps 695 mmHg 14%
    18:00 +31°C° 0 mm 2 mps 695 mmHg 15%
    19:00 +30°C° 0 mm 2 mps 696 mmHg 17%
    20:00 +29°C° 0 mm 2 mps 696 mmHg 19%
    21:00 +28°C° 0 mm 2 mps 696 mmHg 22%
    22:00 +27°C° 0 mm 3 mps 696 mmHg 24%
    23:00 +26°C° 0 mm 2 mps 696 mmHg 26%

    Tomorrow, 14 December, Saturday

    Time Temperature Precipitation Wind Pressure Humidity
    00:00 +26°C° 0 mm 2 mps 696 mmHg 29%
    01:00 +25°C° 0 mm 2 mps 696 mmHg 31%
    02:00 +23°C° 0 mm 4 mps 696 mmHg 30%
    03:00 +23°C° 0 mm 5 mps 696 mmHg 29%
    04:00 +23°C° 0 mm 7 mps 696 mmHg 27%
    05:00 +23°C° 0 mm 7 mps 696 mmHg 27%
    06:00 +23°C° 0 mm 7 mps 697 mmHg 27%
    07:00 +24°C° 0 mm 7 mps 697 mmHg 27%
    08:00 +26°C° 0 mm 7 mps 697 mmHg 26%
    09:00 +27°C° 0 mm 6 mps 697 mmHg 24%
    10:00 +28°C° 0 mm 6 mps 697 mmHg 22%
    11:00 +29°C° 0 mm 5 mps 697 mmHg 21%
    12:00 +30°C° 0 mm 5 mps 696 mmHg 19%
    13:00 +32°C° 0 mm 5 mps 696 mmHg 18%
    14:00 +33°C° 0 mm 5 mps 696 mmHg 18%
    15:00 +33°C° 0 mm 4 mps 695 mmHg 18%
    16:00 +33°C° 0 mm 4 mps 695 mmHg 17%
    17:00 +32°C° 0 mm 4 mps 696 mmHg 19%
    18:00 +30°C° 0 mm 4 mps 696 mmHg 22%
    19:00 +29°C° 0 mm 4 mps 697 mmHg 24%
    20:00 +27°C° 0.1 mm 5 mps 697 mmHg 32%
    21:00 +24°C° 0.1 mm 6 mps 698 mmHg 40%
    22:00 +22°C° 0.1 mm 8 mps 698 mmHg 49%
    23:00 +22°C° 0 mm 6 mps 698 mmHg 48%

    Day after tomorrow, 15 December, Sunday

    Time Temperature Precipitation Wind Pressure Humidity
    00:00 +22°C° 0 mm 4 mps 699 mmHg 48%
    01:00 +23°C° 0 mm 2 mps 699 mmHg 47%
    02:00 +23°C° 0 mm 2 mps 699 mmHg 49%
    03:00 +22°C° 0 mm 1 mps 698 mmHg 51%
    04:00 +21°C° 0 mm 1 mps 698 mmHg 53%
    05:00 +21°C° 0 mm 2 mps 699 mmHg 48%
    06:00 +23°C° 0 mm 2 mps 699 mmHg 42%
    07:00 +25°C° 0 mm 3 mps 700 mmHg 37%
    08:00 +25°C° 0 mm 3 mps 700 mmHg 34%
    09:00 +26°C° 0 mm 4 mps 700 mmHg 32%
    10:00 +27°C° 0 mm 4 mps 699 mmHg 29%
    11:00 +28°C° 0 mm 4 mps 699 mmHg 27%
    12:00 +29°C° 0 mm 4 mps 698 mmHg 24%
    13:00 +30°C° 0 mm 4 mps 698 mmHg 22%
    14:00 +30°C° 0 mm 4 mps 697 mmHg 21%
    15:00 +32°C° 0 mm 4 mps 696 mmHg 20%
    16:00 +32°C° 0 mm 5 mps 696 mmHg 20%
    17:00 +30°C° 0 mm 4 mps 696 mmHg 21%
    18:00 +29°C° 0 mm 4 mps 696 mmHg 21%
    19:00 +28°C° 0 mm 3 mps 697 mmHg 22%
    20:00 +27°C° 0 mm 3 mps 697 mmHg 23%
    21:00 +26°C° 0 mm 3 mps 697 mmHg 24%
    22:00 +25°C° 0 mm 2 mps 697 mmHg 25%
    23:00 +24°C° 0 mm 2 mps 697 mmHg 26%

    16 December, Monday

    Time Temperature Precipitation Wind Pressure Humidity
    00:00 +24°C° 0 mm 3 mps 696 mmHg 27%
    01:00 +22°C° 0 mm 3 mps 696 mmHg 27%
    02:00 +22°C° 0 mm 3 mps 696 mmHg 29%
    03:00 +21°C° 0 mm 3 mps 696 mmHg 30%
    04:00 +20°C° 0 mm 4 mps 696 mmHg 31%
    05:00 +22°C° 0 mm 3 mps 696 mmHg 27%
    06:00 +24°C° 0 mm 3 mps 697 mmHg 24%
    07:00 +25°C° 0 mm 3 mps 697 mmHg 20%
    08:00 +26°C° 0 mm 3 mps 697 mmHg 19%
    09:00 +28°C° 0 mm 4 mps 697 mmHg 18%
    10:00 +29°C° 0 mm 4 mps 697 mmHg 17%
    11:00 +29°C° 0 mm 4 mps 697 mmHg 16%
    12:00 +30°C° 0 mm 4 mps 696 mmHg 16%
    13:00 +32°C° 0 mm 4 mps 696 mmHg 15%
    14:00 +32°C° 0 mm 4 mps 696 mmHg 15%
    15:00 +33°C° 0 mm 4 mps 695 mmHg 14%
    16:00 +33°C° 0 mm 3 mps 695 mmHg 14%
    17:00 +31°C° 0 mm 3 mps 696 mmHg 16%
    18:00 +29°C° 0 mm 3 mps 696 mmHg 18%
    19:00 +28°C° 0 mm 3 mps 696 mmHg 20%
    20:00 +27°C° 0 mm 3 mps 696 mmHg 26%
    21:00 +27°C° 0 mm 3 mps 696 mmHg 31%
    22:00 +26°C° 0 mm 3 mps 696 mmHg 36%
    23:00 +25°C° 0 mm 3 mps 696 mmHg 36%

    17 December, Tuesday

    Time Temperature Precipitation Wind Pressure Humidity
    00:00 +24°C° 0 mm 3 mps 695 mmHg 36%
    01:00 +24°C° 0 mm 3 mps 695 mmHg 35%
    02:00 +23°C° 0 mm 2 mps 695 mmHg 38%
    03:00 +21°C° 0 mm 2 mps 694 mmHg 41%
    04:00 +22°C° 0 mm 1 mps 694 mmHg 43%
    05:00 +23°C° 0 mm 1 mps 695 mmHg 40%
    06:00 +25°C° 0 mm 2 mps 695 mmHg 37%
    07:00 +26°C° 0 mm 2 mps 696 mmHg 33%
    08:00 +28°C° 0 mm 2 mps 695 mmHg 32%
    09:00 +30°C° 0 mm 3 mps 695 mmHg 30%
    10:00 +32°C° 0 mm 4 mps 695 mmHg 29%
    11:00 +33°C° 0 mm 4 mps 695 mmHg 26%
    12:00 +34°C° 0 mm 4 mps 694 mmHg 24%
    13:00 +36°C° 0 mm 4 mps 694 mmHg 22%
    14:00 +36°C° 0 mm 4 mps 693 mmHg 22%
    15:00 +36°C° 0 mm 4 mps 693 mmHg 21%
    16:00 +36°C° 0 mm 4 mps 693 mmHg 21%
    17:00 +35°C° 0 mm 4 mps 693 mmHg 23%
    18:00 +34°C° 0 mm 4 mps 694 mmHg 25%
    19:00 +33°C° 0 mm 4 mps 694 mmHg 27%
    20:00 +32°C° 0 mm 4 mps 694 mmHg 31%
    21:00 +30°C° 0 mm 4 mps 694 mmHg 35%
    22:00 +29°C° 0 mm 4 mps 694 mmHg 39%
    23:00 +28°C° 0 mm 3 mps 694 mmHg 43%

    18 December, Wednesday

    Time Temperature Precipitation Wind Pressure Humidity
    00:00 +27°C° 0 mm 2 mps 694 mmHg 46%
    01:00 +27°C° 0 mm 1 mps 693 mmHg 50%
    02:00 +26°C° 0 mm 3 mps 693 mmHg 50%
    03:00 +26°C° 0 mm 4 mps 694 mmHg 50%
    04:00 +26°C° 0 mm 5 mps 694 mmHg 50%
    05:00 +26°C° 0 mm 5 mps 694 mmHg 45%
    06:00 +26°C° 0 mm 5 mps 694 mmHg 40%
    07:00 +27°C° 0 mm 5 mps 695 mmHg 35%
    08:00 +28°C° 0 mm 5 mps 695 mmHg 33%
    09:00 +29°C° 0 mm 5 mps 694 mmHg 31%
    10:00 +32°C° 0 mm 4 mps 694 mmHg 29%
    11:00 +33°C° 0 mm 4 mps 694 mmHg 28%
    12:00 +34°C° 0 mm 3 mps 693 mmHg 26%
    13:00 +35°C° 0 mm 3 mps 693 mmHg 25%
    14:00 +36°C° 0 mm 3 mps 693 mmHg 25%
    15:00 +36°C° 0 mm 2 mps 692 mmHg 24%
    16:00 +37°C° 0 mm 2 mps 692 mmHg 23%
    17:00 +35°C° 0.1 mm 3 mps 692 mmHg 26%
    18:00 +34°C° 0.1 mm 3 mps 693 mmHg 29%
    19:00 +33°C° 0.1 mm 3 mps 693 mmHg 32%
    20:00 +31°C° 0.4 mm 3 mps 693 mmHg 37%
    21:00 +29°C° 0.4 mm 2 mps 693 mmHg 41%
    22:00 +28°C° 0.4 mm 1 mps 693 mmHg 46%
    23:00 +27°C° 0.2 mm 3 mps 693 mmHg 48%
    Show more